Home   Weather   Mobile   Past weeks

Flag for USA Past Weather in Mobile, Alabama, USA — Yesterday and Last 2 Weeks

Now
84 °F

Clear.


Feels Like: 95 °F
Forecast: 76 / 90 °F
Wind: No wind

Location: Mobile Downtown Airport

Current Time: Jul 22, 2017 at 10:07:44 pm

Latest Report: Jul 22, 2017 at 8:53 pm


Visibility: 10 mi

Pressure: 29.99 "Hg

Humidity: 83%

Dew Point: 78 °F

Location of MobileLocation

Past Weather in Mobile — Graph

°F

Mobile Temperature Yesterday

Maximum temperature yesterday: 92 °F (at 1:53 pm)
Minimum temperature yesterday: 80 °F (at 10:53 pm)
Average temperature yesterday: 85 °F

High & Low Weather Summary for the Past Weeks

 TemperatureHumidityPressure
High96 °F (Jul 20, 2:53 pm)100% (Jul 8, 4:53 am)30.19 "Hg (Jul 8, 4:53 am)
Low73 °F (Jul 9, 4:53 am)46% (Jul 20, 3:53 pm)29.93 "Hg (Jul 16, 6:53 pm)
Average82 °F85%30.06 "Hg
* Reported Jul 7 7:53 pm — Jul 22 7:53 pm, Mobile. Weather by CustomWeather, © 2017

Note: Actual official high and low records may vary slightly from our data, if they occured in-between our weather recording intervals... More about our weather records

Advertising

Mobile Weather History for the Previous 24 Hours

Scroll right to see more
 ConditionsComfort  
Time TempWeatherWind HumidityBarometerVisibility
7:53 pm
Sat, Jul 22
85 °FClear.3 mph77%29.98 "Hg10 mi
6:53 pm88 °FScattered clouds.6 mph67%29.97 "Hg10 mi
5:53 pm90 °FPartly sunny.8 mph63%29.97 "Hg10 mi
4:53 pm87 °FScattered clouds.8 mph72%29.97 "Hg10 mi
3:53 pm89 °FScattered clouds.6 mph68%29.97 "Hg10 mi
2:53 pm88 °FScattered clouds.8 mph70%29.99 "Hg10 mi
1:53 pm91 °FThundershowers. Scattered clouds.12 mph66%30.00 "Hg10 mi
12:53 pm90 °FScattered clouds.9 mph66%30.01 "Hg10 mi
11:53 am89 °FScattered clouds.8 mph68%30.04 "Hg10 mi
10:53 am87 °FPassing clouds.7 mph72%30.04 "Hg10 mi
9:53 am85 °FSunny.5 mph77%30.05 "Hg10 mi
8:53 am86 °FSunny.3 mph72%30.06 "Hg10 mi
7:53 am81 °FSunny.3 mph88%30.06 "Hg10 mi
6:53 am78 °FPassing clouds.No wind96%30.03 "Hg10 mi
5:53 am77 °FLight rain. Passing clouds.No wind96%30.03 "Hg10 mi
5:19 am77 °FThunderstorms. Partly cloudy.No wind96%30.03 "Hg8 mi
4:53 am79 °FThunderstorms. Mostly cloudy.7 mph94%30.03 "Hg10 mi
4:42 am79 °FThundershowers. Passing clouds.3 mph94%30.01 "Hg10 mi
4:36 am79 °FPartly cloudy.No wind94%30.01 "Hg10 mi
4:09 am79 °FThunderstorms. Passing clouds.No wind94%30.00 "Hg10 mi
3:53 am78 °FThundershowers. Passing clouds.5 mph96%29.98 "Hg10 mi
2:53 am78 °FClear.5 mph96%29.98 "Hg10 mi
1:53 am79 °FClear.3 mph94%29.99 "Hg10 mi
12:53 am79 °FClear.No wind94%30.00 "Hg10 mi
11:53 pm
Fri, Jul 21
80 °FClear.No wind90%30.01 "Hg10 mi
10:53 pm80 °FClear.No wind90%30.02 "Hg10 mi
Weather by CustomWeather, © 2017

See weather overviewHow to use our weather pages